EN

Hourly Weather Tolkachevo 2

Today, 10 April, Saturday

Time Temperature Precipitation Wind Pressure Humidity
00:00 +2°C° 0 mm 5 mps 751 mmHg 68%
01:00 +2°C° 0 mm 5 mps 751 mmHg 68%
02:00 +2°C° 0 mm 5 mps 751 mmHg 68%
03:00 +2°C° 0 mm 5 mps 750 mmHg 69%
04:00 +1°C° 0 mm 5 mps 750 mmHg 70%
05:00 +1°C° 0 mm 5 mps 750 mmHg 71%
06:00 +2°C° 0 mm 5 mps 750 mmHg 70%
07:00 +3°C° 0 mm 5 mps 750 mmHg 68%
08:00 +3°C° 0 mm 6 mps 750 mmHg 66%
09:00 +5°C° 0 mm 6 mps 750 mmHg 61%
10:00 +7°C° 0 mm 6 mps 750 mmHg 56%
11:00 +9°C° 0 mm 7 mps 750 mmHg 51%
12:00 +9°C° 0 mm 7 mps 750 mmHg 50%
13:00 +10°C° 0 mm 7 mps 750 mmHg 49%
14:00 +11°C° 0 mm 7 mps 750 mmHg 48%
15:00 +10°C° 0 mm 6 mps 750 mmHg 50%
16:00 +10°C° 0 mm 6 mps 750 mmHg 51%
17:00 +10°C° 0 mm 5 mps 750 mmHg 53%
18:00 +10°C° 0.1 mm 4 mps 750 mmHg 61%
19:00 +8°C° 0.1 mm 4 mps 751 mmHg 68%
20:00 +8°C° 0.1 mm 3 mps 751 mmHg 76%
21:00 +8°C° 0.3 mm 2 mps 752 mmHg 81%
22:00 +7°C° 0.3 mm 2 mps 752 mmHg 85%
23:00 +7°C° 0.3 mm 1 mps 753 mmHg 90%

Tomorrow, 11 April, Sunday

Time Temperature Precipitation Wind Pressure Humidity
00:00 +7°C° 0.7 mm 1 mps 753 mmHg 91%
01:00 +7°C° 0.7 mm 1 mps 753 mmHg 92%
02:00 +5°C° 0.7 mm 2 mps 753 mmHg 92%
03:00 +6°C° 0.2 mm 1 mps 754 mmHg 93%
04:00 +6°C° 0.2 mm 1 mps 754 mmHg 93%
05:00 +6°C° 0.2 mm 1 mps 754 mmHg 93%
06:00 +7°C° 0 mm 1 mps 754 mmHg 91%
07:00 +7°C° 0 mm 1 mps 755 mmHg 89%
08:00 +6°C° 0 mm 2 mps 755 mmHg 87%
09:00 +7°C° 0 mm 2 mps 755 mmHg 85%
10:00 +8°C° 0 mm 2 mps 756 mmHg 82%
11:00 +8°C° 0 mm 2 mps 756 mmHg 80%
12:00 +9°C° 0 mm 2 mps 756 mmHg 75%
13:00 +12°C° 0 mm 2 mps 756 mmHg 70%
14:00 +13°C° 0 mm 2 mps 756 mmHg 65%
15:00 +14°C° 0 mm 2 mps 756 mmHg 64%
16:00 +14°C° 0 mm 2 mps 756 mmHg 62%
17:00 +15°C° 0 mm 2 mps 756 mmHg 61%
18:00 +13°C° 0 mm 2 mps 756 mmHg 66%
19:00 +12°C° 0 mm 2 mps 757 mmHg 71%
20:00 +9°C° 0 mm 2 mps 757 mmHg 76%
21:00 +9°C° 0 mm 2 mps 757 mmHg 78%
22:00 +8°C° 0 mm 2 mps 757 mmHg 79%
23:00 +8°C° 0 mm 3 mps 757 mmHg 80%

Day after tomorrow, 12 April, Monday

Time Temperature Precipitation Wind Pressure Humidity
00:00 +7°C° 0 mm 2 mps 758 mmHg 80%
01:00 +7°C° 0 mm 2 mps 758 mmHg 80%
02:00 +6°C° 0 mm 2 mps 758 mmHg 81%
03:00 +6°C° 0 mm 2 mps 758 mmHg 81%
04:00 +4°C° 0 mm 3 mps 758 mmHg 81%
05:00 +4°C° 0 mm 3 mps 757 mmHg 82%
06:00 +5°C° 0 mm 3 mps 757 mmHg 76%
07:00 +8°C° 0 mm 3 mps 757 mmHg 70%
08:00 +8°C° 0 mm 4 mps 757 mmHg 64%
09:00 +11°C° 0 mm 4 mps 757 mmHg 58%
10:00 +12°C° 0 mm 4 mps 757 mmHg 52%
11:00 +14°C° 0 mm 5 mps 756 mmHg 46%
12:00 +14°C° 0 mm 5 mps 756 mmHg 44%
13:00 +15°C° 0 mm 5 mps 755 mmHg 42%
14:00 +16°C° 0 mm 5 mps 755 mmHg 40%
15:00 +15°C° 0 mm 4 mps 754 mmHg 41%
16:00 +15°C° 0 mm 4 mps 754 mmHg 43%
17:00 +16°C° 0 mm 3 mps 754 mmHg 45%
18:00 +13°C° 0 mm 3 mps 753 mmHg 51%
19:00 +11°C° 0 mm 3 mps 753 mmHg 58%
20:00 +9°C° 0 mm 2 mps 753 mmHg 65%
21:00 +9°C° 0 mm 2 mps 753 mmHg 68%
22:00 +8°C° 0 mm 2 mps 753 mmHg 70%
23:00 +8°C° 0 mm 2 mps 753 mmHg 72%

13 April, Tuesday

Time Temperature Precipitation Wind Pressure Humidity
00:00 +7°C° 0 mm 2 mps 753 mmHg 75%
01:00 +7°C° 0 mm 2 mps 753 mmHg 78%
02:00 +6°C° 0 mm 2 mps 753 mmHg 81%
03:00 +6°C° 0 mm 2 mps 753 mmHg 83%
04:00 +5°C° 0 mm 2 mps 752 mmHg 86%
05:00 +5°C° 0 mm 2 mps 752 mmHg 88%
06:00 +6°C° 0 mm 2 mps 752 mmHg 82%
07:00 +8°C° 0 mm 2 mps 752 mmHg 75%
08:00 +10°C° 0 mm 2 mps 752 mmHg 69%
09:00 +12°C° 0 mm 2 mps 752 mmHg 62%
10:00 +14°C° 0 mm 2 mps 752 mmHg 55%
11:00 +16°C° 0 mm 2 mps 751 mmHg 48%
12:00 +16°C° 0 mm 2 mps 751 mmHg 45%
13:00 +17°C° 0 mm 2 mps 751 mmHg 43%
14:00 +18°C° 0 mm 2 mps 751 mmHg 41%
15:00 +17°C° 0 mm 2 mps 750 mmHg 43%
16:00 +17°C° 0 mm 2 mps 750 mmHg 46%
17:00 +17°C° 0 mm 2 mps 750 mmHg 48%
18:00 +15°C° 0 mm 2 mps 750 mmHg 58%
19:00 +14°C° 0 mm 2 mps 750 mmHg 68%
20:00 +12°C° 0 mm 2 mps 750 mmHg 78%
21:00 +12°C° 0 mm 2 mps 750 mmHg 82%
22:00 +10°C° 0 mm 2 mps 750 mmHg 86%
23:00 +10°C° 0 mm 2 mps 750 mmHg 89%

14 April, Wednesday

Time Temperature Precipitation Wind Pressure Humidity
00:00 +9°C° 0 mm 2 mps 749 mmHg 91%
01:00 +9°C° 0 mm 2 mps 749 mmHg 92%
02:00 +9°C° 0 mm 2 mps 749 mmHg 93%
03:00 +9°C° 0 mm 2 mps 749 mmHg 93%
04:00 +9°C° 0 mm 2 mps 749 mmHg 93%
05:00 +9°C° 0 mm 2 mps 749 mmHg 93%
06:00 +10°C° 0 mm 2 mps 749 mmHg 89%
07:00 +10°C° 0 mm 2 mps 749 mmHg 86%
08:00 +12°C° 0 mm 2 mps 748 mmHg 82%
09:00 +13°C° 0.2 mm 2 mps 748 mmHg 80%
10:00 +14°C° 0.2 mm 2 mps 748 mmHg 78%
11:00 +14°C° 0.2 mm 3 mps 748 mmHg 76%
12:00 +13°C° 0.3 mm 3 mps 748 mmHg 76%
13:00 +14°C° 0.3 mm 2 mps 748 mmHg 77%
14:00 +14°C° 0.3 mm 2 mps 748 mmHg 77%
15:00 +14°C° 0.4 mm 3 mps 747 mmHg 75%
16:00 +14°C° 0.4 mm 3 mps 747 mmHg 74%
17:00 +14°C° 0.4 mm 3 mps 747 mmHg 72%
18:00 +13°C° 0.3 mm 3 mps 747 mmHg 77%
19:00 +12°C° 0.3 mm 2 mps 748 mmHg 81%
20:00 +10°C° 0.3 mm 2 mps 748 mmHg 86%
21:00 +10°C° 0 mm 2 mps 748 mmHg 86%
22:00 +10°C° 0 mm 2 mps 748 mmHg 86%
23:00 +10°C° 0 mm 1 mps 748 mmHg 87%

15 April, Thursday

Time Temperature Precipitation Wind Pressure Humidity
00:00 +9°C° 0.1 mm 2 mps 748 mmHg 88%
01:00 +9°C° 0.1 mm 2 mps 748 mmHg 89%
02:00 +9°C° 0.1 mm 2 mps 748 mmHg 90%
03:00 +9°C° 0.1 mm 2 mps 748 mmHg 91%
04:00 +9°C° 0.1 mm 2 mps 748 mmHg 91%
05:00 +8°C° 0.1 mm 2 mps 748 mmHg 92%
06:00 +9°C° 0 mm 3 mps 749 mmHg 90%
07:00 +9°C° 0 mm 3 mps 749 mmHg 89%
08:00 +9°C° 0 mm 3 mps 749 mmHg 87%
09:00 +10°C° 0 mm 3 mps 749 mmHg 84%
10:00 +10°C° 0 mm 4 mps 749 mmHg 81%
11:00 +11°C° 0 mm 4 mps 750 mmHg 79%
12:00 +11°C° 0 mm 4 mps 750 mmHg 77%
13:00 +10°C° 0 mm 5 mps 750 mmHg 75%
14:00 +10°C° 0 mm 5 mps 750 mmHg 73%
15:00 +9°C° 0 mm 6 mps 750 mmHg 75%
16:00 +8°C° 0 mm 6 mps 750 mmHg 78%
17:00 +5°C° 0 mm 6 mps 750 mmHg 80%
18:00 +5°C° 0 mm 6 mps 750 mmHg 78%
19:00 +4°C° 0 mm 6 mps 751 mmHg 75%
20:00 +3°C° 0 mm 7 mps 751 mmHg 73%
21:00 +3°C° 0 mm 7 mps 751 mmHg 69%
22:00 +3°C° 0 mm 7 mps 751 mmHg 65%
23:00 +3°C° 0 mm 7 mps 751 mmHg 61%
Show more

We Need Your Consent

Meteoprog and our Service Providers may store and access personal data such as cookies, device identifiers or other similar technologies on your device and process such data to personalise content and ads, as well as provide social media features and to analyse the traffic.

  • Store and/or access information on your device

    Cookies, device identifiers or other information can be stored or accessed on your device for the purposes indicated above.

  • Personalised ads and content, ad and content measurement, audience insights, and products development

    Ads and content can be personalised based on a profile. More data can be added to better personalise ads and content. Ad and content performance can be measured. Insights about the audience who saw the ads and content can be derived. Such data can be used to develop or improve user’s experience, systems and software.

By clicking ‘I Agree’ you will allow the use of indicated cookies, device identifiers, web beacons or other similar technologies. Your settings can be changed in the browser on your device.

For certain purposes, legitimate interests may be relied on, rather than consent. You can read more about this in our Privacy and Cookie Policy.